Domov               UVHVVR             MKGP            O straneh              
ZDRAVSTVENO VARSTVO RASTLIN
  MREŽA AGROMET. POSTAJ
 ► PROGNOSTIČNA OBVESTILA
AGROMETEOROLOŠKI PODATKI -
ARSO
OBVLADOVANJE TVEGANJ ZARADI
NEUGODNIH VREMENSKIH RAZMER
  ► NARAVNE NESREČE
  ► SUŠA/MOČA
  ► NAMAKANJE
  ► ŽLED (gozdarstvo)
KARTOGRAFSKI PRIKAZI
SPLETNE POVEZAVE
PROJEKTI IN PUBLIKACIJE

AGROMETEOROLOŠKA MREŽA: VREMENSKE POSTAJE IN FENOLOŠKA OPAZOVANJA

Pregled podatkov za lokacijo Zimica, meteorološka postaja 27472

Pregled senzorjev na lokaciji

ID Ime Zadnja
vrednost
Datum
zadnje
spremembe
Tip
senzorja
4317 Omočenost lista (U) 0 U 26.3.2019 17:59 A730WET
1715 Padavine (mm) 0 mm 26.3.2019 18:00 Generic 0.2 mm
1714 Relativna vlaga 2 m (% RH) 34,75 % RH 26.3.2019 18:00 Generic 0 - 100 %
1713 Temperatura 2 m (°C) 10,48 °C 26.3.2019 18:00 Generic -40 - +60 °C

Pregled podatkov zadnjih 24 ur

Zap.
št.
Datum in čas Zimica
Omočenost
lista
Padavine Relativna
vlaga
2
m
Temperatura
2
m
1 26.3.2019 17:30
2 26.3.2019 17:00 0 0 34,7 10,5
3 26.3.2019 16:30 0 0 35,6 10,6
4 26.3.2019 16:00 0 0 34,6 10,5
5 26.3.2019 15:30 0 0 35,7 10,6
6 26.3.2019 15:00 0 0 37,1 10,5
7 26.3.2019 14:30 0 0 34,9 11,1
8 26.3.2019 14:00 0 0 37,2 10,7
9 26.3.2019 13:30 0 0 37,7 10,7
10 26.3.2019 13:00 0 0 37,7 10
11 26.3.2019 12:30 0 0 38,9 10,1
12 26.3.2019 12:00 0 0 42,3 9,5
13 26.3.2019 11:30 0 0 42,2 9,6
14 26.3.2019 11:00 0 0 47,2 8,2
15 26.3.2019 10:30 0 0 46,7 8,5
16 26.3.2019 10:00 0 0 51,5 8,1
17 26.3.2019 09:30 0 0 52,2 7,7
18 26.3.2019 09:00 0 0 56,4 7
19 26.3.2019 08:30 0 0 61 5,6
20 26.3.2019 08:00 0 0 63,9 4,7
21 26.3.2019 07:30 0 0 67,2 4,1
22 26.3.2019 07:00 0 0 68 3,7
23 26.3.2019 06:30 0 0 70,8 3,2
24 26.3.2019 06:00 0 0 71,8 3,2
25 26.3.2019 05:30 0 0 70,8 3,5
26 26.3.2019 05:00 0 0 69,6 3,6
27 26.3.2019 04:30 0 0 69,3 3,7
28 26.3.2019 04:00 0 0 69,8 3,8
29 26.3.2019 03:30 0 0 70,2 3,8
30 26.3.2019 03:00 0 0 73,6 3,7
31 26.3.2019 02:30 4 0 84,2 3,3
32 26.3.2019 02:00 7 0 87,4 3,4
33 26.3.2019 01:30 5 0 87 3,6
34 26.3.2019 01:00 4 0 86,3 3,7
35 26.3.2019 00:30 3 0 86,8 3,7
36 26.3.2019 00:00 3 0 85,9 3,7
37 25.3.2019 23:30 2 0 84,8 3,8
38 25.3.2019 23:00 2 0 85,3 4
39 25.3.2019 22:30 8 0 88,8 4,1
40 25.3.2019 22:00 10 0 91,1 4
41 25.3.2019 21:30 10 0,2 88,9 4,1
42 25.3.2019 21:00 9 0,2 85,1 4,4
43 25.3.2019 20:30 7 0,6 82,5 4,7
44 25.3.2019 20:00 9 0,2 77,5 5,3
45 25.3.2019 19:30 4 0,2 69,2 6,5
46 25.3.2019 19:00 3 0 70 6,4
47 25.3.2019 18:30 9 0,2 77,1 5,8
48 25.3.2019 18:00 9 1,6 84,3 5,9
© 2011 Ministrstvo za kmetijstvo, gozdarstvo in prehrano. Vse pravice pridržane.